[[{"header":{"parameterUnit":"m.s-1","parameterCategory":1,"la1":30.2992,"la2":30.254,"lo1":-89.0895,"lo2":-89.0443,"dy":0.0025,"dx":0.0025,"nx":19,"ny":19,"refTime":"2026-05-04T09:00:00:Z","depth":0,"parameterNumber":2,"parameterNumberName":"U-component_of_WINDS"},"data":[0,0,0,0.4735,0.4735,0.4695,0.4695,0.4654,0.4653,0,0,0,0,0,0,0,0,0,0,0,0.4753,0.4753,0.4735,0.4735,0.4695,0.4695,0.4654,0.4653,0,0,0,0,0,0,0,0,0,0,0,0.4753,0.4753,0.4753,0.4734,0.4695,0.4695,0.4654,0.468,0,0,0,0,0,0,0,0,0,0,0.4717,0.474,0.4753,0.4753,0.4734,0.4695,0.4695,0.4681,0.4678,0.4675,0,0.4676,0,0.4664,0.4651,0.4651,0,0,0,0.473,0.4742,0.4726,0.4753,0.4734,0.4695,0.4712,0.4679,0.4676,0.4672,0.4675,0.4673,0.4663,0.4651,0.4651,0.4651,0.4652,0,0,0.4732,0.475,0.4728,0.4724,0.4732,0.4713,0.471,0.4677,0.4682,0.4675,0.4672,0.4662,0.4651,0.4651,0.4651,0.4651,0,0,0,0.4741,0.4751,0.4736,0.4726,0.4718,0.4712,0.4709,0.4683,0.4676,0.4671,0.4662,0.4651,0.465,0.4651,0.4651,0.4679,0,0,0,0.4742,0.4757,0.4737,0.4747,0.4719,0.47,0.4716,0.4679,0.4674,0.4662,0.4651,0.465,0.4651,0.4651,0.4678,0.4689,0,0,0,0.4754,0.4758,0.4755,0.4748,0.4732,0.4701,0.4692,0.4677,0.4669,0.4651,0.465,0.465,0.4651,0.4677,0.4687,0.4693,0,0,0,0.4771,0.4781,0.4756,0.4763,0.4733,0.4719,0.4692,0.4681,0.4669,0.465,0.4651,0.4651,0.4676,0.4686,0.4692,0.4701,0.4706,0,0,0.4794,0.4785,0.4788,0.4764,0.4759,0.4723,0.4722,0.4694,0.4676,0.466,0.466,0.4678,0.4687,0.4693,0.4734,0.4739,0,0,0,0.4801,0.4803,0.4798,0.4788,0.4767,0.4749,0.4719,0.4709,0.4694,0.4672,0.4682,0.4687,0.469,0.4693,0.4697,0.4697,0.4654,0.4654,0.4654,0.4859,0.4835,0.4837,0.4808,0.4798,0.4767,0.4756,0.4736,0.4715,0.4718,0.4713,0.4741,0.4745,0.4748,0.4749,0.4716,0.4716,0.4717,0.4717,0.4889,0.4887,0.4858,0.4851,0.4825,0.4817,0.4787,0.4772,0.476,0.4743,0.4744,0.4726,0.4754,0.4753,0.4719,0.4718,0.4718,0.4718,0.4718,0.4923,0.4918,0.4905,0.4885,0.4873,0.4843,0.4833,0.481,0.4788,0.4789,0.478,0.4779,0.4775,0.4787,0.4787,0.4787,0.4787,0.4787,0.4787,0.4963,0.4947,0.4941,0.4919,0.4908,0.4891,0.4859,0.4847,0.4828,0.4811,0.4811,0.4789,0.4762,0.4754,0.4788,0.4788,0.4788,0.4788,0.4788,0.5,0.4987,0.4979,0.4968,0.4939,0.4927,0.4898,0.4875,0.4862,0.4858,0.4835,0.4819,0.4808,0.4804,0.4798,0.4841,0.4841,0.4841,0.4841,0.5027,0.5019,0.5005,0.4988,0.497,0.4942,0.4931,0.4906,0.4877,0.4867,0.4857,0.4848,0.4845,0.4835,0.4831,0.4825,0.4874,0.4874,0.4874,0.5047,0.5037,0.5033,0.5005,0.498,0.4958,0.4947,0.4928,0.4893,0.4875,0.4858,0.4857,0.484,0.4837,0.4818,0.4812,0.48,0,0]},{"header":{"parameterUnit":"m.s-1","parameterCategory":1,"la1":30.2992,"la2":30.254,"lo1":-89.0895,"lo2":-89.0443,"dy":0.0025,"dx":0.0025,"nx":19,"ny":19,"refTime":"2026-05-04T09:00:00:Z","depth":0,"parameterNumber":3,"parameterNumberName":"V-component_of_WINDS"},"data":[0,0,0,5.4753,5.4756,5.4883,5.4883,5.5051,5.5052,0,0,0,0,0,0,0,0,0,0,0,5.4724,5.4725,5.4753,5.4756,5.4883,5.4883,5.505,5.5052,0,0,0,0,0,0,0,0,0,0,0,5.4723,5.4725,5.4727,5.4757,5.4883,5.4883,5.505,5.4952,0,0,0,0,0,0,0,0,0,0,5.4827,5.481,5.4725,5.4727,5.4758,5.4882,5.4883,5.4947,5.4958,5.4997,0,5.5039,0,5.5048,5.5064,5.5065,0,0,0,5.475,5.48,5.4827,5.4727,5.4759,5.4882,5.4824,5.4953,5.4965,5.5012,5.5041,5.5047,5.5051,5.5065,5.5066,5.5324,5.5325,0,0,5.4743,5.475,5.4819,5.4836,5.4821,5.482,5.4828,5.496,5.4991,5.5041,5.505,5.5054,5.5067,5.5068,5.5322,5.5324,0,0,0,5.4727,5.4746,5.4769,5.4829,5.4852,5.4824,5.4833,5.4985,5.4992,5.5052,5.5056,5.5068,5.507,5.5321,5.5323,5.5404,0,0,0,5.4723,5.4737,5.4767,5.4772,5.485,5.4921,5.4855,5.4983,5.4997,5.5055,5.5068,5.5072,5.5319,5.5322,5.5398,5.5441,0,0,0,5.4713,5.4735,5.4757,5.4773,5.4828,5.4919,5.4933,5.4986,5.5,5.5065,5.5072,5.5318,5.5321,5.5393,5.5432,5.5508,0,0,0,5.4704,5.4829,5.4758,5.4898,5.4827,5.497,5.4932,5.5038,5.5104,5.5069,5.5319,5.5323,5.5392,5.5427,5.5502,5.5571,5.5602,0,0,5.4865,5.4849,5.493,5.4871,5.5028,5.495,5.5117,5.517,5.5168,5.5271,5.5277,5.54,5.5431,5.5507,5.5774,5.5798,0,0,0,5.4984,5.5042,5.5082,5.5146,5.519,5.5228,5.5254,5.5272,5.5359,5.5224,5.5449,5.5468,5.5511,5.5543,5.5564,5.5599,5.5339,5.5338,5.5338,5.5222,5.5214,5.5346,5.5352,5.5413,5.5437,5.5485,5.5513,5.5487,5.554,5.5569,5.5733,5.5771,5.5787,5.5823,5.5607,5.5608,5.5608,5.5608,5.5455,5.5535,5.5495,5.5609,5.5597,5.5692,5.5718,5.5695,5.5778,5.5711,5.5749,5.5673,5.5814,5.5845,5.5614,5.5613,5.5613,5.5612,5.5612,5.5609,5.5645,5.5666,5.5753,5.5821,5.5821,5.5902,5.5889,5.5877,5.5915,5.5942,5.594,5.5934,5.5929,5.593,5.593,5.5931,5.5931,5.5931,5.5758,5.5779,5.5851,5.5905,5.5941,5.5987,5.601,5.6044,5.6078,5.6061,5.6061,5.6026,5.5831,5.578,5.594,5.5939,5.5937,5.5937,5.5936,5.5993,5.5937,5.6048,5.6084,5.6143,5.6209,5.6191,5.6261,5.6287,5.6326,5.6283,5.6142,5.6123,5.6106,5.6063,5.6288,5.6288,5.6288,5.6288,5.6121,5.611,5.6217,5.6275,5.6331,5.6324,5.6443,5.646,5.6468,5.6482,5.6448,5.6392,5.6376,5.6366,5.6344,5.6304,5.6584,5.6584,5.6584,5.6262,5.6256,5.6362,5.6371,5.6415,5.6451,5.6562,5.6626,5.6624,5.6596,5.6492,5.648,5.6388,5.636,5.6328,5.6294,5.622,0,0]}]]